Weather History for KHYR - May, 2014

Change the Weather History Date:

Thursday, May 8, 2014

  Actual Average Record
Temperature  
Mean Temperature 52 °F -  
Max Temperature 55 °F 70 °F 80 °F (2007)
Min Temperature 50 °F 48 °F 32 °F (2008)
Degree Days  
Heating Degree Days 14    
Growing Degree Days 2 (Base 50)    
Moisture  
Dew Point 51 °F    
Average Humidity 96    
Maximum Humidity 100    
Minimum Humidity 93    
Precipitation  
Precipitation 0.44 in - - ()
Sea Level Pressure  
Sea Level Pressure 29.73 in    
Wind  
Wind Speed 6 mph (ESE)    
Max Wind Speed 13 mph    
Max Gust Speed 22 mph    
Visibility 6 miles    
Events Rain , Thunderstorm    
Averages and records for this station are not official NWS values.
T = Trace of Precipitation, MM = Missing Value Source: NWS Daily Summary

Daily Weather History Graph

Daily Weather History Graph

Search for Another Location

Airport or City:

Trip Planner

Search our weather history database for the weather conditions in past years. The results will help you decide how hot, cold, wet, or windy it might be!

Date:

Astronomy

May. 08, 2014 Rise Set
Actual Time 5:42 AM CDT 8:22 PM CDT
Civil Twilight 5:08 AM CDT 8:57 PM CDT
Nautical Twilight 4:25 AM CDT 9:40 PM CDT
Astronomical Twilight 3:35 AM CDT 10:30 PM CDT
Moon 2:04 PM CDT (5/8) 2:34 AM CDT (5/8)
Length of Visible Light 15h 48m
Length of Day
14h 40m
Waxing Gibbous, 65% of the Moon is Illuminated
May 8
Waxing Gibbous
May 14
Full
May 21
Last Quarter
May 28
New
Jun 5
First Quarter

Hourly Weather History & Observations

Time (CDT) Temp. Dew Point Humidity Pressure Visibility Wind Dir Wind Speed Gust Speed Precip Events Conditions
12:30 AM 50.0 °F 48.0 °F 93% 29.83 in 1.8 mi East 11.5 mph - 0.16 in Rain , Thunderstorm Heavy Thunderstorms and Rain
12:35 AM 50.0 °F 48.0 °F 93% 29.85 in 2.0 mi Variable 3.5 mph - 0.20 in Rain , Thunderstorm Heavy Thunderstorms and Rain
12:53 AM 50.0 °F - N/A% 29.86 in 2.0 mi Calm Calm - 0.27 in Rain , Thunderstorm Heavy Thunderstorms and Rain
1:06 AM 50.0 °F - N/A% 29.83 in 4.0 mi Calm Calm - 0.02 in Rain , Thunderstorm Thunderstorms and Rain
1:25 AM 51.1 °F - N/A% 29.85 in 6.0 mi Calm Calm - 0.04 in Rain , Thunderstorm Light Rain
1:53 AM 50.0 °F - N/A% 29.83 in 5.0 mi ENE 8.1 mph - 0.07 in Rain , Thunderstorm Light Rain
2:08 AM 50.0 °F - N/A% 29.78 in 6.0 mi East 6.9 mph 16.1 mph 0.01 in Rain Light Rain
2:36 AM 51.1 °F - N/A% 29.79 in 9.0 mi SE 10.4 mph 17.3 mph 0.02 in Rain , Thunderstorm Light Rain
2:51 AM 51.8 °F - N/A% 29.73 in 8.0 mi ESE 12.7 mph 21.9 mph 0.03 in Rain Light Rain
2:53 AM 51.1 °F - N/A% 29.73 in 8.0 mi ESE 10.4 mph 21.9 mph 0.03 in Rain Light Rain
3:53 AM 52.0 °F - N/A% 29.67 in 9.0 mi Variable 6.9 mph 17.3 mph 0.00 in   Partly Cloudy
4:18 AM 52.0 °F - N/A% 29.78 in 7.0 mi SSW 8.1 mph - 0.00 in   Overcast
4:37 AM 52.0 °F 52.0 °F 100% 29.77 in 6.0 mi South 4.6 mph - 0.00 in   Overcast
4:42 AM 52.0 °F 51.1 °F 97% 29.75 in 5.0 mi ESE 3.5 mph - 0.00 in   Mostly Cloudy
4:53 AM 51.1 °F 51.1 °F 100% 29.74 in 3.0 mi ENE 8.1 mph - 0.00 in   Scattered Clouds
5:53 AM 52.0 °F 50.0 °F 93% 29.75 in 8.0 mi SSE 6.9 mph - N/A   Scattered Clouds
6:53 AM 51.1 °F 51.1 °F 100% 29.76 in 4.0 mi East 5.8 mph - 0.01 in   Mostly Cloudy
7:49 AM 51.8 °F 51.8 °F 100% 29.75 in 6.0 mi Calm Calm - N/A   Mostly Cloudy
7:53 AM 53.1 °F 51.1 °F 93% 29.77 in 6.0 mi Calm Calm - N/A   Mostly Cloudy
8:53 AM 53.1 °F 51.1 °F 93% 29.76 in 9.0 mi SE 5.8 mph - N/A   Overcast
9:43 AM 53.1 °F 52.0 °F 96% 29.80 in 8.0 mi Variable 4.6 mph - 0.00 in Rain Light Rain
9:53 AM 53.1 °F 52.0 °F 96% 29.83 in 7.0 mi SSW 4.6 mph - 0.00 in Rain Light Rain
10:11 AM 53.1 °F 52.0 °F 96% 29.79 in 2.5 mi Variable 4.6 mph - 0.03 in Rain Rain
10:29 AM 53.1 °F 53.1 °F 100% 29.72 in 5.0 mi Variable 6.9 mph - 0.06 in Rain Light Rain
10:53 AM 55.9 °F 55.0 °F 97% 29.72 in - North - - 0.06 in   Unknown
1:53 PM - - N/A% 29.71 in - North - - N/A   Unknown
2:53 PM - - N/A% 29.67 in - North - - N/A   Unknown
3:37 PM - - N/A% 29.67 in - North - - N/A   Unknown
4:53 PM - - N/A% 29.67 in - North - - N/A   Unknown
5:26 PM - - N/A% 29.68 in - North - - N/A Thunderstorm Unknown
5:43 PM - - N/A% 29.68 in - North - - N/A Thunderstorm Thunderstorm
5:53 PM - - N/A% 29.69 in - North - - N/A Thunderstorm Thunderstorm
6:28 PM - - N/A% 29.68 in - North - - N/A   Unknown
6:53 PM - - N/A% 29.66 in - North - - N/A   Unknown
7:53 PM - - N/A% 29.67 in - North - - N/A   Unknown
8:53 PM - - N/A% 29.66 in - North - - N/A   Unknown
9:53 PM - - N/A% 29.64 in - North - - N/A   Unknown
10:53 PM - - N/A% 29.59 in - North - - N/A   Unknown
11:07 PM - - N/A% 29.59 in - North - - N/A Thunderstorm Thunderstorm
11:26 PM - - N/A% 29.57 in - North - - N/A   Unknown
11:53 PM - - N/A% 29.64 in - North - - N/A   Unknown